This demonstration page uses our WeatherBlox Daily Observations layout. Learn more.

Left ArrowRight Arrow

39.08367, -84.50855

Hourly Observations for June 19, 2015

Temp ( °F °C ) Dew Point ( °F °C ) Humidity (%) Winds ( mph kmh ) Pressure ( in mb ) Visibility ( mi km ) Precip ( " mm )
12:53 am 00:53 Mostly Clear 70 21.1 70 21.1 100 100 N N/A 30.05 1018 9 14.48406 N/A
1:53 am 01:53 Cloudy with Light Rain 70 21.1 70 21.1 100 100 SSW 3 6 30.06 1018 8 12.87472 0.01 0.254
2:53 am 02:53 Partly Cloudy with Light Rain 70 21.1 69 20.6 97 97 SSW 6 9 30.03 1017 10 16.0934 0.03 0.762
3:53 am 03:53 Mostly Cloudy 69 20.6 66 18.9 90 90 SW 5 7 30.02 1017 10 16.0934 N/A
4:53 am 04:53 Cloudy 68 20 66 18.9 93 93 N N/A 30 1016 10 16.0934 N/A
5:53 am 05:53 Cloudy 67 19.4 67 19.4 100 100 N N/A 30.01 1016 10 16.0934 N/A
6:53 am 06:53 Partly Cloudy 67 19.4 67 19.4 100 100 SW 5 7 30.03 1017 10 16.0934 N/A
7:53 am 07:53 Partly Cloudy 70 21.1 67 19.4 90 90 N N/A 30.04 1017 10 16.0934 N/A
8:53 am 08:53 Mostly Cloudy 72 22.2 69 20.6 91 91 N N/A 30.05 1018 10 16.0934 N/A
9:53 am 09:53 Cloudy with Light Rain 72 22.2 69 20.6 91 91 N N/A 30.06 1018 10 16.0934 N/A
10:53 am 10:53 Cloudy 73 22.8 69 20.6 87 87 N 3 6 30.05 1018 10 16.0934 0.01 0.254
11:53 am 11:53 Cloudy 73 22.8 69 20.6 87 87 N N/A 30.06 1018 10 16.0934 N/A
12:03 pm 12:03 Cloudy with Light Thunderstorms 72 22 70 21 94 94 WNW 5 7 30.06 1018 10 16.0934 N/A
12:35 pm 12:35 Cloudy with Heavy Thunderstorms 70 21.1 68 20 93 93 NW 3 6 30.06 1018 2.5 4.02335 0.08 2.032
12:44 pm 12:44 Cloudy with Thunderstorms 70 21 68 20 94 94 WNW 3 6 30.06 1018 3 4.82802 N/A
12:53 pm 12:53 Cloudy with Heavy Thunderstorms 70 21.1 68 20 93 93 N N/A 30.08 1019 3 4.82802 0.13 3.302
1:25 pm 13:25 Cloudy 69 20.6 69 20.6 100 100 ENE 6 9 30 1016 7 11.26538 0.09 2.286
1:53 pm 13:53 Cloudy 70 21.1 69 20.6 97 97 E 5 7 30.02 1017 7 11.26538 0.14 3.556
2:53 pm 14:53 Cloudy 74 23.3 69 20.6 85 85 NNE 6 9 30 1016 10 16.0934 0.01 0.254
3:53 pm 15:53 Cloudy 75 23.9 68 20 79 79 ESE 5 7 29.98 1015 10 16.0934 N/A
4:53 pm 16:53 Cloudy 76 24.4 67 19.4 74 74 N N/A 29.98 1015 10 16.0934 N/A
5:53 pm 17:53 Mostly Sunny 77 25 68 20 74 74 NE 6 9 29.98 1015 10 16.0934 N/A
6:53 pm 18:53 Cloudy with Light Rain 75 23.9 68 20 79 79 N N/A 29.97 1015 10 16.0934 N/A
7:53 pm 19:53 Mostly Sunny 74 23.3 69 20.6 85 85 NE 3 6 29.96 1015 10 16.0934 N/A
8:53 pm 20:53 Mostly Sunny 72 22.2 71 21.7 97 97 NE 3 6 29.95 1014 10 16.0934 N/A
9:53 pm 21:53 Mostly Cloudy 72 22.2 71 21.7 97 97 N N/A 29.94 1014 10 16.0934 N/A
10:53 pm 22:53 Cloudy 71 21.7 70 21.1 96 96 NE 5 7 29.94 1014 10 16.0934 N/A
11:53 pm 23:53 Mostly Cloudy 71 21.7 69 20.6 94 94 NE 5 7 29.93 1014 10 16.0934 N/A

Powered by AerisWeather